Cloud_Cover
0 0 0 0 0 0 0 0 0 0 0 0 0 8 24 32 20 0 0 0 0 0 0 0 0 0 0 0 0 0 0 0 0 0 0 0 0 12 68 88 88 80 88 88 88 88 88 88 88 76 56 80 88 88 80 80 88 88 80 76 56 56 80 88 88 88 88 88 88 92 92 92 92 100 100 92 92 92 92 92 92 92 92 92 92 92
12 8 12 0 0 0 0 0 0 0 0 0 12 32 44 64 48 24 0 0 0 0 0 0 0 0 0 0 0 0 0 0 0 0 0 0 8 20 32 76 88 80 64 48 48 56 64 48 44 44 48 68 76 64 36 36 44 48 36 64 64 64 64 76 88 88 88 88 88 88 80 88 88 92 92 92 92 92 92 92 88 92 92 92 92 92
32 24 0 0 8 12 0 8 8 0 8 12 32 44 36 68 48 20 0 0 0 0 0 0 0 0 0 0 0 0 0 0 0 0 0 8 32 48 32 44 56 56 56 44 48 64 44 36 24 24 44 56 64 56 24 24 20 20 12 32 24 20 24 48 76 92 92 88 88 88 88 80 88 88 92 92 92 92 92 92 92 92 92 92 92 92
80 64 36 24 32 36 12 32 20 8 12 36 36 32 32 36 32 24 20 0 0 0 0 0 0 0 8 8 0 0 0 0 0 0 8 20 32 56 92 36 36 48 44 32 36 48 44 24 12 8 8 24 44 48 24 20 12 12 12 24 24 20 12 32 56 76 88 88 88 80 88 76 76 80 92 92 92 92 92 92 92 92 92 92 100 100
76 64 88 68 64 48 12 44 36 20 8 36 44 36 44 48 36 36 44 8 0 0 0 8 8 12 24 20 24 24 0 0 8 12 12 12 24 48 80 24 32 48 44 32 24 24 32 20 12 8 8 20 36 44 32 20 12 12 20 24 24 24 24 24 24 36 64 80 80 76 80 76 64 64 76 76 80 80 88 88 92 88 88 92 92 92
88 88 88 80 68 48 24 56 48 32 32 48 56 56 68 64 56 48 48 12 0 0 0 0 0 12 36 36 56 56 12 0 0 8 8 0 0 8 36 8 12 36 44 32 24 20 20 20 12 8 0 8 20 32 32 20 20 20 24 32 32 32 36 24 20 12 12 48 56 56 64 64 56 56 64 64 68 76 76 80 80 80 76 88 92 92
88 88 88 80 48 24 36 36 36 48 68 76 80 88 80 64 64 76 92 56 24 8 20 12 20 36 64 76 80 68 32 8 0 0 0 0 0 0 0 0 8 12 24 32 24 20 12 12 12 8 8 0 0 8 32 24 24 32 24 32 32 32 32 24 20 20 12 20 32 36 36 44 56 64 68 64 64 68 68 68 68 68 68 76 88 92
88 80 64 80 68 56 56 64 56 56 92 76 76 80 80 48 48 68 92 76 56 44 44 56 68 76 68 68 68 48 12 0 0 0 0 8 8 8 0 12 8 0 0 24 32 24 20 12 8 8 8 0 0 0 12 44 44 32 32 32 32 32 24 20 20 20 20 20 20 20 20 36 48 64 76 64 56 48 56 56 64 68 64 56 76 92
88 80 68 80 88 88 76 88 64 44 56 68 80 88 88 76 76 80 92 76 64 56 76 80 68 56 48 56 48 32 0 0 0 0 0 44 36 12 20 24 24 20 8 24 32 24 24 12 8 8 0 0 0 8 12 36 48 48 44 36 36 32 24 20 12 8 20 20 12 12 12 24 44 56 56 48 48 48 48 48 56 64 64 48 68 88
76 88 92 92 88 88 88 88 68 36 24 56 76 88 88 88 88 88 88 68 64 76 92 80 68 68 76 56 48 36 0 8 8 8 8 32 32 24 32 32 44 56 36 24 12 12 20 12 8 0 0 8 8 8 24 24 44 56 48 36 32 32 20 20 8 0 12 20 20 12 12 20 36 48 44 44 48 56 48 44 48 56 56 44 56 76
64 56 88 88 88 88 88 48 44 36 12 56 80 88 92 92 88 88 88 76 68 68 64 76 88 92 92 56 36 32 32 12 12 20 24 12 12 20 20 24 24 32 36 8 0 0 8 0 0 0 0 8 12 20 24 20 24 36 48 32 24 24 12 20 8 0 0 12 12 20 20 20 32 32 32 44 56 64 56 48 48 48 44 36 56 80
76 68 88 88 88 88 76 36 36 36 36 76 88 88 88 88 88 88 88 88 64 44 44 76 88 80 64 76 48 24 36 32 24 24 24 24 20 20 32 32 36 36 8 0 0 0 0 0 0 0 0 12 20 24 24 32 32 32 32 32 32 24 12 12 8 0 0 8 12 20 24 24 24 32 32 36 48 56 56 64 64 56 44 36 48 76
88 88 88 68 64 68 80 76 68 64 80 88 88 88 88 68 76 88 88 88 76 64 80 88 76 56 48 76 64 56 76 32 24 36 32 24 24 24 32 48 56 44 8 32 32 20 0 20 12 0 12 24 24 24 24 32 32 32 48 44 44 48 48 36 24 20 24 8 8 8 24 24 32 36 48 44 44 48 56 56 56 48 36 24 44 76
88 88 88 80 80 80 88 76 76 80 76 68 68 76 88 68 76 88 88 88 88 88 92 88 88 80 80 76 48 44 68 68 68 56 36 36 36 36 32 44 44 36 24 68 64 44 24 56 48 36 32 44 36 32 32 56 64 64 80 76 80 80 80 80 56 36 48 24 12 8 12 20 24 24 36 36 32 32 36 44 44 44 36 32 36 48
88 88 88 88 88 88 88 88 88 88 88 76 68 68 76 80 88 88 88 88 88 88 88 88 88 92 92 56 44 44 44 64 76 88 80 88 64 36 24 56 68 68 80 88 68 44 44 68 68 68 64 68 68 68 68 80 88 88 88 88 88 88 88 80 68 48 44 36 24 12 0 12 20 20 32 32 32 32 36 32 32 32 24 32 32 36
88 88 88 88 88 88 88 88 88 88 76 76 76 80 88 88 88 80 68 80 88 88 88 88 88 88 76 56 56 64 48 76 88 92 92 56 48 44 32 76 76 64 64 80 88 80 88 88 88 88 80 56 48 56 56 80 92 88 88 88 88 80 80 88 80 68 68 56 44 32 32 12 8 8 12 20 24 32 36 32 24 24 20 24 24 36
68 88 88 88 88 88 76 88 88 88 88 88 88 88 88 88 88 88 88 88 88 88 88 88 88 88 88 88 64 44 68 68 80 92 92 44 24 24 24 68 80 80 68 80 88 92 92 92 92 92 92 88 80 76 88 88 92 88 88 76 76 80 80 76 76 76 56 44 36 32 24 12 8 0 0 12 20 24 44 36 32 24 24 24 32 44
88 88 88 88 64 44 44 76 88 88 88 88 88 88 88 88 80 80 88 88 88 88 88 88 88 88 88 88 68 56 64 44 64 92 92 36 12 20 48 80 92 88 88 88 92 92 92 92 92 92 88 88 88 92 92 92 92 88 88 80 76 68 80 80 76 68 64 44 36 32 24 20 12 8 0 8 20 32 44 36 36 32 24 36 44 44
88 88 88 88 88 64 8 68 88 88 88 88 88 88 88 88 88 92 92 92 88 92 92 88 88 88 92 88 56 44 92 88 88 92 92 48 64 88 76 88 88 88 88 88 88 92 92 76 76 80 88 92 92 92 92 88 88 88 88 80 80 80 80 80 76 64 48 48 44 36 36 36 24 20 12 8 20 24 24 24 32 44 44 20 36 56
88 88 88 88 88 88 88 64 44 48 88 88 88 88 88 80 88 92 88 88 88 92 92 92 92 92 88 92 64 44 92 92 88 76 48 80 92 88 76 88 92 88 88 92 92 92 92 92 92 92 88 88 92 92 88 76 76 80 80 80 80 76 56 76 68 56 44 48 44 44 56 48 36 24 20 12 20 24 24 20 32 44 36 36 56 68
88 88 88 88 88 88 88 88 76 68 88 56 64 80 80 88 88 88 88 88 92 92 92 92 92 92 92 92 92 92 88 92 88 88 88 88 56 32 36 80 92 88 88 92 92 92 88 88 88 88 92 88 68 56 56 64 68 68 68 56 48 44 36 48 56 56 48 44 48 48 48 48 44 36 44 24 24 32 32 12 24 36 36 76 88 68
88 88 88 88 88 80 56 48 64 68 44 36 36 36 20 44 76 92 88 88 92 92 92 92 92 92 92 92 88 80 48 80 92 92 92 92 76 48 12 68 92 92 88 92 92 92 88 88 88 88 88 56 44 44 48 56 56 56 56 44 36 36 36 44 56 64 56 44 36 32 36 44 48 48 44 36 36 36 32 20 12 20 32 76 88 76
88 88 88 88 88 88 88 92 68 36 24 36 64 92 92 92 92 92 92 92 88 88 92 92 92 92 92 92 76 68 88 92 92 92 92 92 64 44 92 64 76 88 80 88 88 88 88 88 88 88 68 56 48 48 48 56 48 44 44 32 32 36 32 36 44 48 48 44 32 20 12 32 44 48 36 44 44 36 32 24 20 24 64 76 68 56
88 88 88 88 88 88 88 88 88 80 64 76 80 88 92 92 92 92 88 92 80 80 88 92 92 92 92 92 92 92 92 92 92 92 92 92 76 64 80 64 68 76 56 76 88 88 88 88 88 80 68 64 64 64 56 56 48 36 32 32 32 32 24 20 24 44 44 44 36 24 12 0 20 48 64 56 56 56 48 36 36 32 24 76 88 88
88 88 88 88 80 80 88 88 88 92 88 68 64 76 88 92 92 92 88 88 80 80 80 88 92 92 88 92 92 92 92 92 92 92 92 92 76 56 24 44 48 56 68 56 68 92 88 88 76 68 68 76 68 56 56 56 48 44 36 44 32 20 20 20 32 36 44 48 44 36 36 20 24 36 64 80 88 88 80 56 64 76 76 88 92 92
80 88 80 68 56 56 80 80 88 88 92 88 76 64 80 88 92 92 88 68 68 68 68 80 88 88 92 92 92 88 76 76 68 68 92 92 88 64 24 56 76 68 36 80 92 92 88 88 76 68 64 68 64 56 68 64 64 56 56 64 44 20 20 20 20 24 44 44 56 68 80 76 56 44 64 76 88 92 92 88 88 88 92 92 92 92
88 88 76 48 56 68 68 80 88 92 92 76 68 76 92 92 92 88 76 68 80 92 88 88 88 88 88 88 88 80 48 56 36 32 68 88 80 56 24 64 68 68 88 92 92 88 80 80 76 68 68 68 64 64 64 48 48 56 64 56 48 36 32 20 12 20 36 48 68 80 80 80 80 80 88 88 92 92 92 92 92 92 92 92 92 92
88 88 88 88 88 88 88 88 88 88 92 76 64 64 92 92 92 88 88 68 76 92 92 88 88 88 88 88 88 88 68 80 64 32 24 76 92 68 8 64 88 88 92 92 88 80 76 88 88 80 68 76 76 64 48 44 44 48 56 48 44 32 24 24 24 24 32 76 80 80 88 88 88 88 88 88 88 88 80 88 92 92 92 92 92 92
88 88 88 88 88 88 88 76 80 88 80 88 92 92 92 92 92 88 88 88 92 92 92 88 88 88 88 88 92 88 68 80 68 56 56 80 76 48 12 68 88 92 92 92 88 88 92 92 92 88 92 88 80 64 44 44 36 36 44 36 36 32 24 36 36 32 32 76 88 88 88 88 88 88 88 88 88 80 80 88 92 92 92 92 92 92
80 80 88 88 88 88 88 76 80 88 76 88 92 92 92 92 92 88 88 88 92 92 92 88 88 88 88 88 88 88 88 92 80 76 80 88 76 48 32 76 88 92 92 92 92 92 92 92 92 92 92 80 68 64 48 48 48 48 48 36 24 20 20 24 36 44 64 88 92 92 92 92 92 92 92 88 88 88 88 92 92 92 92 92 92 92
88 88 88 88 88 88 88 88 88 88 92 92 92 92 92 92 92 92 88 92 92 92 88 88 88 88 88 88 88 88 88 92 92 88 80 88 76 56 56 80 92 92 92 92 92 92 92 88 88 92 92 80 76 76 76 76 76 76 68 48 32 24 32 32 32 44 76 88 92 92 92 92 92 92 92 92 92 92 92 92 92 92 92 92 92 92
88 88 88 88 88 88 92 92 92 92 92 92 92 92 92 92 92 92 92 92 92 92 92 88 88 88 88 92 88 88 88 92 88 88 88 92 56 24 64 88 92 92 92 92 92 92 92 88 88 88 92 92 92 92 88 92 88 80 76 48 44 36 44 36 32 36 64 80 92 92 92 92 92 92 92 92 92 92 92 92 92 92 92 92 92 92
88 88 88 88 88 92 92 92 92 92 92 92 88 88 92 92 92 92 92 92 92 92 92 92 88 88 88 92 92 92 92 92 92 88 80 92 76 64 68 88 92 92 92 92 92 92 92 92 88 92 92 92 92 92 92 92 92 88 76 68 68 64 44 44 44 44 56 80 92 92 92 92 92 92 92 92 92 92 92 92 92 92 92 92 92 92
88 88 88 88 88 88 88 92 92 92 92 92 92 92 92 92 92 92 92 92 92 92 92 92 92 92 92 92 92 92 92 92 92 92 80 92 92 92 88 92 92 92 92 92 92 92 92 92 92 92 92 92 92 92 92 92 92 92 88 88 88 88 76 68 64 48 64 68 76 80 92 92 92 92 92 92 92 92 92 92 92 92 92 92 92 92
88 88 88 88 88 88 88 92 92 92 92 92 92 92 92 92 92 92 92 92 92 92 92 92 92 92 92 92 92 92 92 92 92 92 88 92 92 92 92 92 92 92 92 92 92 92 92 92 92 92 92 92 92 92 92 92 92 92 92 92 92 88 88 88 80 76 64 64 76 88 92 92 92 92 92 92 92 92 92 92 92 92 92 92 92 92
88 88 88 88 88 92 88 88 92 92 92 92 92 92 92 92 92 92 92 92 92 92 92 92 92 92 92 92 88 92 92 92 92 92 92 92 92 92 92 92 92 92 92 92 92 92 92 92 92 92 92 92 92 92 92 92 92 92 92 92 92 92 92 88 80 80 80 80 88 92 92 92 92 92 92 92 92 92 92 92 92 92 92 92 92 92
88 88 88 88 92 92 92 88 88 88 92 92 92 92 92 92 92 92 92 92 92 92 92 92 92 92 92 92 92 92 88 92 92 92 92 92 92 92 92 92 92 92 92 92 92 92 92 92 92 92 92 92 92 92 92 92 92 92 92 92 92 92 80 88 92 92 92 92 92 92 92 92 92 92 92 92 92 92 92 92 92 92 92 92 92 92
92 92 88 88 92 92 92 88 88 88 92 92 92 92 92 92 92 92 92 92 92 92 92 92 92 92 92 88 92 92 88 92 92 92 92 92 92 92 92 92 92 92 92 92 92 92 92 92 92 92 92 92 92 92 92 92 92 92 92 92 92 92 88 92 92 92 92 92 92 92 92 92 92 92 92 92 92 92 92 92 92 92 92 92 92 92
92 92 92 92 92 92 92 92 92 92 92 92 92 92 92 92 92 92 92 92 92 92 92 92 88 88 88 88 92 92 92 92 92 92 92 92 92 92 92 92 92 92 92 92 92 92 92 92 92 92 92 92 92 92 92 92 92 92 92 92 92 92 92 92 92 92 92 92 92 92 92 92 92 92 92 92 92 92 92 92 92 92 92 92 92 92
92 92 92 92 92 92 92 92 92 92 92 92 92 92 92 92 92 92 92 92 92 92 92 92 92 92 92 92 92 92 92 92 92 92 92 92 92 92 92 92 92 92 92 92 92 92 92 92 92 92 92 92 92 92 92 92 92 92 92 92 92 92 92 92 92 92 92 92 92 92 92 92 92 92 92 92 92 92 92 92 92 92 92 92 92 92
92 92 92 88 92 92 92 92 92 92 92 92 92 92 92 92 92 92 92 92 92 92 92 92 92 92 92 92 92 92 92 92 92 92 92 92 92 92 92 92 92 92 92 92 92 92 92 92 92 92 92 92 92 92 92 92 92 92 92 92 92 92 92 92 92 92 92 92 92 92 92 92 92 92 92 92 92 92 92 92 92 92 92 92 92 92
92 92 92 88 88 88 92 92 92 92 92 92 92 92 92 92 92 92 92 92 92 92 92 92 92 92 92 92 92 92 92 92 92 92 92 92 92 92 92 92 92 92 92 92 92 92 92 92 92 92 92 92 92 92 92 92 92 92 92 92 92 92 92 92 92 92 92 92 92 92 92 92 92 92 92 92 92 92 92 92 92 92 92 92 92 92
88 88 88 92 92 92 92 92 92 92 92 92 92 92 92 92 92 92 92 92 92 92 92 92 92 92 92 92 92 92 92 92 92 92 92 92 92 92 92 92 92 92 92 92 92 92 92 92 92 92 92 92 92 92 92 92 92 92 92 92 92 92 92 92 92 92 92 92 92 92 92 92 92 92 92 92 92 92 92 92 92 92 92 92 92 92
92 88 92 92 92 92 92 92 92 92 92 92 92 92 92 92 92 92 92 92 92 92 92 92 92 92 92 92 92 92 92 92 92 92 92 92 92 92 92 92 92 92 92 92 92 92 92 92 92 92 92 92 92 92 92 92 92 92 92 92 92 92 92 92 92 92 92 92 92 92 92 92 92 92 92 92 92 92 92 92 92 92 92 92 92 92
92 92 92 92 92 92 92 92 92 92 92 92 92 92 92 92 92 92 92 92 92 92 92 92 92 92 88 88 92 92 92 92 92 92 92 92 92 92 92 92 92 92 92 92 92 92 92 92 92 92 92 92 92 92 92 92 92 92 92 92 92 92 92 92 92 92 92 92 92 92 92 92 92 92 92 92 92 92 92 92 92 92 92 92 92 92
92 92 92 92 92 92 92 92 92 92 92 92 92 92 92 92 92 92 92 92 92 88 92 92 92 92 88 88 92 92 92 92 92 92 92 92 92 92 92 92 92 92 92 92 92 92 92 92 92 92 92 92 92 92 92 92 88 88 92 92 92 92 92 92 92 92 92 92 92 92 92 92 92 92 92 92 92 92 92 92 92 92 92 92 92 92
92 92 92 92 92 92 92 92 92 92 88 88 92 92 92 92 92 92 92 92 88 88 88 88 88 88 88 88 88 92 88 92 92 92 92 92 92 92 92 92 92 92 92 92 92 92 92 92 92 92 92 92 92 92 92 92 88 88 92 92 92 92 92 92 92 92 92 92 92 92 92 92 92 92 92 92 92 92 92 92 92 92 92 92 92 92
92 92 92 92 92 92 92 92 92 92 88 92 92 92 92 92 92 92 88 88 88 88 80 88 92 92 92 92 92 92 92 92 92 92 92 92 92 92 92 92 92 92 92 92 92 92 92 92 92 92 92 92 92 92 92 92 92 92 92 92 92 92 92 92 92 92 92 92 92 92 92 92 92 92 92 92 92 92 92 92 92 92 92 92 92 92
92 92 92 92 92 92 92 92 92 92 92 92 92 92 92 92 92 92 92 88 92 92 92 92 92 92 92 92 92 92 92 92 92 92 92 92 92 92 92 92 92 92 92 92 92 92 92 92 92 92 92 92 92 92 92 92 92 92 92 92 92 92 92 92 92 92 92 92 92 92 92 92 92 92 92 92 92 92 92 92 92 92 92 92 92 92
92 92 92 92 92 92 92 92 92 92 92 92 92 92 92 92 92 92 92 92 92 92 92 92 92 92 92 92 92 92 92 92 92 92 92 92 92 92 92 92 92 92 92 92 92 92 92 92 92 92 92 92 92 92 92 92 92 92 92 92 92 92 92 92 92 92 92 92 92 92 92 92 92 92 92 92 92 92 92 92 92 92 92 92 92 92
92 92 92 92 92 92 92 92 92 92 92 92 92 92 92 92 92 92 92 92 92 92 92 92 92 92 92 92 92 92 92 92 92 92 92 92 92 92 92 92 92 92 92 92 92 92 92 92 92 92 92 92 92 92 92 92 92 92 92 92 92 92 92 92 92 92 92 92 92 92 92 92 92 92 92 92 92 92 92 92 92 92 92 92 92 92